Regional Weather Roundup
Issued by NWS

Home | Current Version | Previous Version | Graphics & Text | Print | Product List | Glossary On
Versions: 1 2 3 4 5 6 7 8 9 10 11 12 13 14 15 16 17 18 19 20 21 22 23 24 25 26 27 28 29 30 31 32 33 34 35 36 37 38 39 40 41 42 43 44 45 46 47 48 49 50
000
ASUS43 KDTX 220110
RWRMI
MICHIGAN HOURLY REGIONAL WEATHER ROUNDUP
NATIONAL WEATHER SERVICE DETROIT/PONTIAC MI
800 PM EST TUE NOV 21 2017

NOTE: "FAIR" INDICATES FEW OR NO CLOUDS BELOW 12,000 FEET WITH NO
SIGNIFICANT WEATHER AND/OR OBSTRUCTION TO VISIBILITY.

MIZ047>049-052>055-059>063-066>070-074>076-081>083-220200-
SOUTHEAST LOWER MICHIGAN

CITY           SKY/WX    TMP DP  RH WIND       PRES   REMARKS
ADRIAN         CLOUDY    37  33  85 NW10      29.97R WCI  30
ALMA           CLOUDY    35  23  62 NW12G18   29.98R WCI  26
ANN ARBOR      CLOUDY    37  35  92 W8        29.94R WCI  31
BAD AXE        CLOUDY    35  25  66 NW13G22   29.92R WCI  26
CARO           CLOUDY    35  26  70 NW12G22   29.93R WCI  26
DETROIT CITY   CLOUDY    38  33  82 W7        29.93R WCI  33
DETROIT        CLOUDY    39  37  92 W9        29.94R WCI  33
FLINT          CLOUDY    36  26  67 NW13      29.94R WCI  27
GROSSE ILE     LGT RAIN  38  36  90 W12G18    29.93R WCI  31
HILLSDALE      CLOUDY    34  30  86 NW12      29.96R WCI  25
HOWELL         CLOUDY    36  30  79 W10       29.93S WCI  28

CITY           SKY/WX    TMP DP  RH WIND       PRES   REMARKS
JACKSON        CLOUDY    36  28  73 W12G18    29.96R WCI  28
LAMBERTVILLE   DRIZZLE   40  36  86 W8        29.95S WCI  35
LANSING        CLOUDY    35  28  75 NW6       29.98R WCI  30
LAPEER         CLOUDY    37  26  66 NW10G16   29.92R WCI  29
MASON          CLOUDY    36  28  75 W10       29.96R WCI  28
MONROE         DRIZZLE   39  36  88 W8        29.94R WCI  34
MT. CLEMENS    CLOUDY    38  38  99 W8        29.90R WCI  32
PONTIAC        CLOUDY    37  34  89 W12       29.91R WCI  29
PORT HOPE        N/A     37  23  56 NW17G30   29.88R WCI  27
PORT HURON     CLOUDY    37  34  87 W3        29.91R
TRI CITIES     CLOUDY    35  23  61 NW17G23   29.97R WCI  25
MIDLAND        CLOUDY    35  21  55 NW14G23   29.96R WCI  26
TROY           CLOUDY    41  37  83 W10       29.94R
SAGINAW HB     CLOUDY    34  27  75 NW15G21   29.96R WCI  24
$$
MIZ043>046-050>051-056>058-064>065-071>073-077>080-220200-
SOUTHWEST LOWER MICHIGAN

CITY           SKY/WX    TMP DP  RH WIND       PRES   REMARKS
BATTLE CREEK   CLOUDY    35  27  72 W9        30.00R WCI  28
BENTON HARBOR  CLOUDY    36  22  56 NW13G22   30.07R WCI  27
BIG RAPIDS     CLOUDY    31  20  61 NW8G20    29.99R WCI  24
COLDWATER      CLOUDY    35  28  77 NW8       30.00R WCI  28
FREMONT        CLOUDY    32  22  65 NW10      30.02R WCI  24
HOLLAND        CLOUDY    36  22  56 N10G23    30.04R WCI  28
GRAND RAPIDS   FLURRIES  34  24  67 NW18      30.01R WCI  23
IONIA          CLOUDY    35  23  62 NW16G22   29.98R WCI  25
KALAMAZOO      CLOUDY    35  25  66 W12       30.01R WCI  27
LUDINGTON      CLOUDY    32  20  61 N12G20    30.05R WCI  23
MARSHALL       CLOUDY    34  27  76 W8G16     29.98R WCI  27
MOUNT PLEASANT CLOUDY    35  19  54 NW8       29.97R WCI  28
MUSKEGON       CLOUDY    35  20  54 NW13      30.05R WCI  26
SOUTH HAVEN    CLOUDY    37  24  59 NW13G22   30.05R WCI  28
$$
MIZ016>042-220200-
NORTHERN LOWER MICHIGAN

CITY           SKY/WX    TMP DP  RH WIND       PRES   REMARKS
ALPENA         CLOUDY    30  20  66 NW14G28   29.94R WCI  19
BEAVER ISLAND  CLOUDY    29  20  68 NW15G26   30.00R WCI  18
BELLAIRE       CLOUDY    31  22  70 NW9       30.01R WCI  23
CADILLAC       CLOUDY    28  18  64 NW16      29.96R WCI  17
CHARLEVOIX     FLURRIES  30  23  75 NW15G24   30.02R WCI  19
FRANKFORT      CLOUDY    32  20  62 NW10G20   30.05R WCI  23
GAYLORD        CLOUDY    26  18  71 NW12G25   29.94R WCI  16
GRAYLING       CLOUDY    28  19  68 NW8       29.96R WCI  20
HARBOR SPRINGS CLOUDY    29  17  59 NW14G23   29.98R WCI  18
HOUGHTON LAKE  FLURRIES  29  20  69 NW9       29.96R WCI  20
MANISTEE       FLURRIES  32  22  66 NW12G22   30.04R WCI  23
OSCODA         CLOUDY    33  18  55 NW14G21   29.93R WCI  23
PELLSTON       CLOUDY    29  18  63 NW15      29.98R WCI  18
ROGERS CITY    CLOUDY    30  21  69 NW8G23    29.94R WCI  22
TRAVERSE CITY  FLURRIES  31  20  63 NW14      30.02R WCI  21
$$
MIZ007>008-015-220200-
EASTERN UPPER MICHIGAN

CITY           SKY/WX    TMP DP  RH WIND       PRES   REMARKS
KINROSS        FLURRIES  26  18  71 NW17G32   29.93R WCI  13
MACKINAC ISLAN FLURRIES  28  18  66 NW16G22   29.95R WCI  17
NEWBERRY       LGT SNOW  24  23  93 NW10      29.96R WCI  14
S. S. MARIE    LGT SNOW  27  19  72 NW15G26   29.92R WCI  15
MUNISING         N/A     30  22  72 N23G32    30.02R WCI  17
$$
MIZ004>006-011>014-085-220200-
CENTRAL UPPER MICHIGAN

CITY           SKY/WX    TMP DP  RH WIND       PRES   REMARKS
MANISTIQUE     LGT SNOW  23  19  86 W10       30.02R WCI  12
ESCANABA       FLURRIES  24  13  62 NW12      30.08R WCI  13
MENOMINEE      FLURRIES  24  12  60 N9        30.12R WCI  14
SAWYER-GWINN   FLURRIES  21  14  73 NW10      30.03R WCI  10
$$
MIZ001>003-009>011-084-220200-
WESTERN UPPER MICHIGAN

CITY           SKY/WX    TMP DP  RH WIND       PRES   REMARKS
IRON MOUNTAIN  CLOUDY    22  12  65 NW16      30.06R WCI   8
HOUGHTON       LGT SNOW  22  13  68 NW23G35   30.04R WCI   6
COPPER HARBOR    N/A     27  20  75 N26G33    30.05R WCI  12
$$

ABBREVIATIONS USED IN REMARKS
   TC - TEMPERATURE IN CELSIUS
  WCI - WIND CHILL INDEX
   HX - HEAT INDEX
  VSB - VISIBILITY





USA.gov is the U.S. government's official web portal to all federal, state and local government web resources and services.